STARLINK-34209, 64150

Orbit data source: Space-Track

STARLINK-34209, 64150 is a payload satellite owned by SpaceX/Seattle (US) in SSO that was launched on Tue, 27 May 2025 UTC via an FALCON 9 launch vehicle from the Air Force Western Test Range (AFWTR). Payload-class satellites include a variety of spacecraft equipped with specific instruments for various scientific and technological missions. These include communications satellites like Starlink; space stations such as the ISS; scientific satellites like the Hubble; Earth observation satellites from companies like Planet Labs, Umbra, and HawkEye 360; GPS; miniature CubeSats for education and research; and military/defense satellites.

Loading next visibility...
Identifier
64150, 2025-112E
Orbit
SSO
Country
Flag of USUS
Related business
Manufacturer
SpaceX/Seattle
Mission
Operational Commercial Communications
Bus & Motor
STARLINK V2MO, Unknown motor
Mass
575 kg wet, ~530 kg dry
Launch date (UTC)
2025-05-27 (1 year ago)
Launch vehicle
FALCON 9
Launch site
Air Force Western Test Range (AFWTR)
Object type
Payload
Rocket body
Debris
Shape & HBR
Box + 1 Pan, 17.7 m
Radar Cross Section
41.120 m², Large (>1 m²)

Expand to show TLE details & history
Last TLE update: 1 day ago

TLE from 1 day ago
0 STARLINK-34209
1 64150U 25112E   26236.07103852  .00021133  00000-0  65457-3 0  9992
2 64150  97.2840 283.5180 0002245  95.5596 264.5903 15.33469119 68541
Epoch: 2026-08-24T01:42Z
TLE epoch observation values (Epoch: 2026-08-24T01:42:17.728Z)
Latitude
0.00001°
Longitude
-74.41388°
Altitude
468.729 km
Speed
7.632 km/s
True Right ascension
18h 54m 04s
True Declination
0° 00' 00"
Sunlit
Object was in full shadow at epoch
Visualization orbit readout
Latitude
Unknown
Longitude
Unknown
Altitude
Unknown
Speed
Unknown
Apparent Right ascension
Unknown
Apparent Declination
Unknown
Sunlit
N/A
Visualization observer readout
Local Sidereal Time
18:44:27
Azimuth
Unknown
Elevation
Unknown
Doppler factor
Unknown
Orbital elements
Apogee altitude
463.95 km
Perigee altitude
460.878 km
Semi-major axis
6,840.551 km
Eccentricity
0.00022
Inclination
97.284°
RAAN
283.518°
Arg. of periapsis
95.5596°
True anomaly
264.56469°
Mean anomaly
264.5903°
Eccentric anomaly
264.57749°
Mean motion
3.83625 °/min
Orbital period
93.84 mins
BSTAR
0.00065457
Loading maneuver chart data...
Computing Atmospheric mass density...
Loading historical data...
Loading historical data...
Loading historical data...
Loading historical data...
Loading historical data...
Loading historical data...
Loading historical data...

Documentation

Showing up to 5 results
|